Denver, CO

8:16 AM MDT on March 24, 2017 (GMT -0600)
Front Range

Weather History for KFTG - February, 2013

Change the Weather History Date:

Monday, February 25, 2013

  Actual Average (KDEN) Record (KDEN)
Temperature  
Mean Temperature 20 °F -  
Max Temperature 32 °F 51 °F 74 °F (1986)
Min Temperature 8 °F 24 °F -11 °F (1874)
Degree Days  
Heating Degree Days 45    
Moisture  
Dew Point 10 °F    
Average Humidity 79    
Maximum Humidity 93    
Minimum Humidity 58    
Precipitation  
Precipitation 0.00 in - - ()
Sea Level Pressure  
Sea Level Pressure 29.95 in    
Wind  
Wind Speed 8 mph (SW)    
Max Wind Speed 13 mph    
Max Gust Speed -    
Visibility 8 miles    
Events      
Averages and records for this station are not official NWS values.
T = Trace of Precipitation, MM = Missing Value Source: NWS Daily Summary

Daily Weather History Graph

Daily Weather History Graph

Search for Another Location

Airport or City:

Trip Planner

Search our weather history database for the weather conditions in past years. The results will help you decide how hot, cold, wet, or windy it might be!

Date:

Astronomy

Feb. 25, 2013 Rise Set
Actual Time 6:36 AM MST 5:46 PM MST
Civil Twilight 6:09 AM MST 6:13 PM MST
Nautical Twilight 5:38 AM MST 6:44 PM MST
Astronomical Twilight 5:07 AM MST 7:15 PM MST
Moon 6:01 PM MST (2/25) 6:08 AM MST (2/25)
Length of Visible Light 12h 03m
Length of Day
11h 09m
Full, 100% of the Moon is Illuminated
Feb 25
Full
Feb 25
Full
Mar 4
Last Quarter
Mar 11
New
Mar 19
First Quarter

Hourly Weather History & Observations

Time (MST) Temp. Windchill Dew Point Humidity Pressure Visibility Wind Dir Wind Speed Gust Speed Precip Events Conditions
12:05 AM 14.0 °F 3.9 °F 12.2 °F 93% 30.04 in 5.0 mi West 6.9 mph - N/A   Clear
12:23 AM 17.6 °F 7.3 °F 14.0 °F 86% 30.04 in 4.0 mi WSW 8.1 mph - N/A   Scattered Clouds
12:44 AM 17.6 °F 8.2 °F 14.0 °F 86% 30.04 in 7.0 mi West 6.9 mph - N/A   Scattered Clouds
1:05 AM 15.8 °F 6.1 °F 14.0 °F 93% 30.05 in 7.0 mi West 6.9 mph - N/A   Clear
1:29 AM 17.6 °F 9.3 °F 14.0 °F 86% 30.06 in 10.0 mi West 5.8 mph - N/A   Clear
1:46 AM 15.8 °F 5.1 °F 14.0 °F 93% 30.06 in 10.0 mi West 8.1 mph - N/A   Clear
2:07 AM 15.8 °F 6.1 °F 14.0 °F 93% 30.06 in 10.0 mi West 6.9 mph - N/A   Clear
2:27 AM 14.0 °F 2.9 °F 12.2 °F 93% 30.05 in 10.0 mi West 8.1 mph - N/A   Clear
2:48 AM 14.0 °F 2.9 °F 12.2 °F 93% 30.04 in 7.0 mi West 8.1 mph - N/A   Clear
3:07 AM 12.2 °F -0.2 °F 10.4 °F 92% 30.04 in 5.0 mi West 9.2 mph - N/A   Clear
3:29 AM 12.2 °F 0.7 °F 10.4 °F 92% 30.04 in 5.0 mi West 8.1 mph - N/A   Clear
3:49 AM 14.0 °F 2.0 °F 10.4 °F 86% 30.03 in 7.0 mi West 9.2 mph - N/A   Clear
4:09 AM 14.0 °F 3.9 °F 12.2 °F 93% 30.03 in 7.0 mi West 6.9 mph - N/A   Clear
4:28 AM 14.0 °F 3.9 °F 12.2 °F 93% 30.04 in 7.0 mi West 6.9 mph - N/A   Clear
4:49 AM 14.0 °F 2.0 °F 12.2 °F 93% 30.03 in 10.0 mi West 9.2 mph - N/A   Clear
5:09 AM 12.2 °F 0.7 °F 8.6 °F 85% 30.02 in 7.0 mi West 8.1 mph - N/A   Clear
5:25 AM 14.0 °F 2.9 °F 10.4 °F 86% 30.02 in 7.0 mi West 8.1 mph - N/A   Clear
5:49 AM 10.4 °F -3.3 °F 8.6 °F 92% 30.01 in 5.0 mi West 10.4 mph - N/A   Clear
6:08 AM 10.4 °F -4.1 °F 6.8 °F 85% 30.00 in 7.0 mi West 11.5 mph - N/A   Clear
6:29 AM 8.6 °F -5.5 °F 5.0 °F 85% 30.00 in 5.0 mi WSW 10.4 mph - N/A   Clear
6:47 AM 10.4 °F -3.3 °F 8.6 °F 92% 30.00 in 4.0 mi WSW 10.4 mph - N/A   Clear
7:03 AM 12.2 °F 1.7 °F 10.4 °F 92% 30.01 in 4.0 mi SW 6.9 mph - N/A   Clear
7:55 AM 8.6 °F 0.1 °F 5.0 °F 85% 30.02 in 40.0 mi South 4.6 mph - N/A   Clear
8:50 AM 12.2 °F 1.7 °F 10.4 °F 92% 30.03 in 40.0 mi SSE 6.9 mph - N/A   Clear
11:55 AM 28.4 °F 22.2 °F 21.2 °F 74% 29.98 in 40.0 mi South 5.8 mph - N/A   Clear
1:54 PM 32.0 °F - 19.4 °F 60% 29.91 in 50.0 mi Calm Calm - N/A   Clear
3:55 PM 32.0 °F 27.5 °F 21.2 °F 64% 29.89 in 50.0 mi SE 4.6 mph - N/A   Clear
4:48 PM 28.4 °F 22.2 °F 17.6 °F 64% 29.87 in 50.0 mi South 5.8 mph - N/A   Clear
5:48 PM 19.4 °F 10.4 °F 10.4 °F 68% 29.87 in 50.0 mi South 6.9 mph - N/A   Partly Cloudy
6:50 PM 15.8 °F 4.2 °F 6.8 °F 68% 29.85 in 20.0 mi South 9.2 mph - N/A   Partly Cloudy
8:15 PM 17.6 °F 5.7 °F 5.0 °F 58% 29.84 in 10.0 mi South 10.4 mph - N/A   Clear
8:35 PM 15.8 °F 5.1 °F 5.0 °F 62% 29.84 in 10.0 mi South 8.1 mph - N/A   Clear
8:54 PM 15.8 °F 5.1 °F 5.0 °F 62% 29.84 in 10.0 mi South 8.1 mph - N/A   Clear
9:10 PM 15.8 °F 4.2 °F 5.0 °F 62% 29.84 in 10.0 mi South 9.2 mph - N/A   Clear
9:34 PM 15.8 °F 3.4 °F 5.0 °F 62% 29.84 in 10.0 mi South 10.4 mph - N/A   Clear
9:52 PM 14.0 °F 2.9 °F 5.0 °F 67% 29.84 in 10.0 mi South 8.1 mph - N/A   Clear
10:12 PM 14.0 °F 2.9 °F 3.2 °F 62% 29.83 in 10.0 mi South 8.1 mph - N/A   Clear
10:35 PM 14.0 °F 1.2 °F 3.2 °F 62% 29.82 in 10.0 mi South 10.4 mph - N/A   Clear
10:53 PM 14.0 °F -0.2 °F 3.2 °F 62% 29.81 in 10.0 mi South 12.7 mph - N/A   Clear
11:15 PM 14.0 °F 1.2 °F 5.0 °F 67% 29.81 in 10.0 mi South 10.4 mph - N/A   Clear
11:35 PM 14.0 °F 2.9 °F 5.0 °F 67% 29.80 in 10.0 mi South 8.1 mph - N/A   Clear
11:55 PM 14.0 °F 2.0 °F 8.6 °F 79% 29.78 in 10.0 mi South 9.2 mph - N/A   Clear